This is the latest recevied weather packets stored in our database for station/object KD9CCP. If no packets are shown the sender has not sent any weather packets the latest 10 day(s).
| Time | Temp. | Humidity | Pressure | Rain* | Wind** | Luminosity | Snow |
|---|---|---|---|---|---|---|---|
| 1777397077 | 6.67° C | 86% | 1011.6 hPa | 0 mm | - | 71 W/m² | - |
| 1777396773 | 6.67° C | 86% | 1011.7 hPa | 0 mm | - | 122 W/m² | - |
| 1777396471 | 6.67° C | 86% | 1011.5 hPa | 0 mm | - | 67 W/m² | - |
| 1777396167 | 6.67° C | 87% | 1011.5 hPa | 0 mm | - | 79 W/m² | - |
| 1777395863 | 6.67° C | 88% | 1011.4 hPa | 0 mm | - | 52 W/m² | - |
| 1777395559 | 6.11° C | 88% | 1011.6 hPa | 0 mm | - | 66 W/m² | - |
| 1777395255 | 6.11° C | 89% | 1011.6 hPa | 0 mm | - | 106 W/m² | - |
| 1777394954 | 5.56° C | 91% | 1011.7 hPa | 0 mm | - | 98 W/m² | - |
| 1777394649 | 5.56° C | 92% | 1011.7 hPa | 0 mm | - | 46 W/m² | - |
| 1777394346 | 5.56° C | 92% | 1011.4 hPa | 0 mm | - | 48 W/m² | - |
| 1777394042 | 5.56° C | 92% | 1011.4 hPa | 0 mm | - | 45 W/m² | - |
| 1777393736 | 5.56° C | 92% | 1011.5 hPa | 0 mm | - | 34 W/m² | - |
| 1777393431 | 5.56° C | 92% | 1011.5 hPa | 0 mm | - | 41 W/m² | - |
| 1777393128 | 5.56° C | 92% | 1011.4 hPa | 0 mm | - | 50 W/m² | - |
| 1777392824 | 5.56° C | 93% | 1011.4 hPa | 0 mm | - | 55 W/m² | - |
| 1777392520 | 5° C | 93% | 1011 hPa | 0 mm | - | 36 W/m² | - |
| 1777392216 | 5.56° C | 92% | 1011.1 hPa | 0 mm | - | 46 W/m² | - |
| 1777391911 | 5.56° C | 93% | 1011 hPa | 0 mm | - | 41 W/m² | - |
| 1777391606 | 5° C | 92% | 1011.1 hPa | 0 mm | - | 35 W/m² | - |
| 1777391303 | 5° C | 93% | 1011 hPa | 0 mm | - | 40 W/m² | - |
| 1777391000 | 5° C | 93% | 1011.1 hPa | 0 mm | - | 34 W/m² | - |
| 1777390695 | 5° C | 93% | 1011 hPa | 0 mm | - | 28 W/m² | - |
| 1777390393 | 5° C | 93% | 1010.7 hPa | 0 mm | - | 24 W/m² | - |
| 1777390088 | 5° C | 93% | 1010.9 hPa | 0 mm | - | 22 W/m² | - |
| 1777389785 | 5° C | 93% | 1010.5 hPa | 0 mm | - | 22 W/m² | - |
* Rain latest hour (hover to see other rain measurements)
** Current wind speed in m/s (hover to see current wind gust speed)